Theta_e
309 308 308 308 308 308 307 306 306 306 306 306 306 305 308 308 308 309 311 311 310 310 310 309 309 309 309 308 308 309 309 310 312 309 307 307 307 307 307 308 308 308 308
308 308 308 309 309 307 306 305 306 306 306 306 306 304 305 307 308 308 307 307 308 308 309 308 309 308 307 306 307 306 309 308 310 311 307 307 307 308 308 309 309 309 309
308 308 309 310 310 308 308 307 307 307 307 306 304 305 307 307 307 307 307 307 307 308 308 307 307 306 306 307 307 308 309 309 309 310 310 308 308 308 309 309 309 310 308
309 308 309 310 311 310 308 308 307 308 308 307 305 305 306 306 307 307 307 307 308 308 308 308 308 308 309 309 308 308 307 307 308 308 310 309 307 309 310 310 312 311 308
308 310 312 311 309 309 308 308 308 307 306 307 306 306 306 306 306 307 307 308 308 307 306 305 306 307 307 307 307 307 308 308 310 310 310 310 310 311 311 312 312 311 311
310 311 311 310 307 308 309 308 307 309 309 309 308 308 308 307 306 306 308 307 307 308 308 308 308 308 309 309 309 309 310 310 310 312 311 311 310 311 311 311 311 311 310
310 310 311 311 309 308 307 306 307 310 310 310 309 309 308 308 308 307 307 308 309 309 309 309 310 310 311 310 311 311 310 310 311 311 311 311 310 311 311 311 311 310 312
310 309 308 308 310 310 309 308 307 308 310 310 309 310 308 307 308 308 308 308 309 309 309 310 309 309 310 311 309 308 308 310 309 311 311 311 311 310 309 310 309 310 309
310 308 309 306 305 307 310 311 310 309 309 309 309 309 310 310 310 309 308 309 309 309 309 309 309 308 308 309 309 309 308 308 308 309 309 308 308 308 308 308 311 312 311
309 309 310 311 309 304 306 308 310 310 308 308 309 309 309 308 308 309 309 309 308 308 308 308 309 308 308 308 308 308 308 307 307 308 307 307 307 306 305 305 303 307 307
308 309 310 310 311 312 310 304 304 306 309 309 308 307 308 309 309 308 309 308 308 309 309 308 309 309 309 308 308 307 306 306 307 306 306 306 305 304 303 303 302 301 307
309 309 309 309 309 311 311 312 309 306 303 302 307 308 308 307 308 308 308 307 308 309 309 309 308 308 308 307 306 305 304 305 305 305 305 305 305 304 303 302 301 300 300
309 309 309 308 309 311 312 311 310 310 307 302 299 302 305 306 305 306 308 308 309 308 308 308 307 307 307 306 305 305 304 303 305 304 304 303 302 302 301 301 301 300 300
310 310 310 310 309 309 310 311 309 308 309 303 303 299 299 300 300 300 303 306 307 308 308 307 307 307 306 304 303 304 303 302 302 302 302 302 301 302 303 300 301 301 301
312 311 310 311 309 310 311 311 310 308 307 307 303 303 300 303 304 303 304 305 306 307 307 306 306 307 306 305 304 303 302 301 302 301 302 302 302 302 302 300 301 301 300
312 311 311 310 310 310 310 310 309 309 308 307 306 303 304 302 303 304 304 304 304 304 304 306 306 306 305 304 303 303 302 300 299 298 301 302 302 302 302 301 301 300 300
311 311 311 311 310 311 310 310 309 309 308 308 307 305 303 303 305 303 303 302 302 302 304 305 305 305 304 302 301 300 300 298 295 297 300 300 301 301 301 301 300 300 300
310 310 311 311 311 311 311 311 310 308 308 308 308 307 305 303 305 305 305 303 302 301 301 303 304 303 301 300 299 298 297 295 295 296 299 300 300 301 301 301 300 300 299
310 310 311 311 311 310 310 311 309 308 308 307 306 307 305 304 305 305 304 303 302 301 301 302 301 300 300 299 297 296 295 294 295 297 299 299 299 300 300 300 300 299 298
310 310 311 311 312 311 311 311 308 307 307 307 306 305 305 304 304 305 305 304 303 301 300 300 299 298 298 297 296 295 294 294 294 297 298 299 298 299 299 299 299 299 298
311 312 310 311 312 312 311 311 309 308 308 308 307 305 304 304 305 305 305 304 304 302 300 299 300 299 298 297 296 294 294 294 294 295 297 298 298 298 298 299 298 298 298
311 312 312 312 312 311 311 312 312 311 309 308 307 307 306 304 303 303 303 303 304 303 301 299 299 298 297 297 297 296 294 294 293 294 296 297 298 298 297 298 298 298 298
312 312 312 313 312 311 311 312 312 312 312 312 308 308 308 306 305 304 303 303 303 304 303 301 299 298 297 297 296 296 294 294 293 293 294 296 297 297 297 297 297 297 297
312 312 312 312 312 312 312 312 312 311 311 312 312 311 309 307 307 305 304 303 302 303 304 303 301 299 298 297 296 296 295 294 293 293 293 295 297 297 296 297 297 296 297
313 313 313 312 312 312 312 312 312 311 311 311 311 311 311 309 307 307 305 305 305 302 302 303 302 300 298 297 297 296 295 294 293 293 293 293 296 296 296 296 296 296 296
311 312 313 313 313 312 312 312 311 312 312 312 312 311 311 311 311 310 307 305 304 304 302 301 301 301 298 297 297 296 295 294 293 293 293 293 293 296 297 296 296 296 295
Wind_Speed
17 16 15 15 17 15 13 11 11 10 10 9 9 8 5 8 11 14 14 14 13 12 10 9 8 8 7 5 4 3 2 2 2 2 4 2 3 3 3 4 3 3 5
14 13 15 16 18 15 15 10 12 12 11 9 9 8 3 6 7 8 10 10 8 7 6 5 4 4 3 2 3 3 6 6 4 3 3 2 2 3 5 6 7 8 7
12 11 13 16 17 12 15 14 13 13 13 9 7 6 6 5 5 6 7 8 7 5 3 3 3 4 4 5 8 8 6 5 4 2 1 2 3 5 5 6 7 8 8
10 12 15 16 17 15 13 14 12 14 13 9 8 6 5 5 5 5 5 7 8 9 10 10 10 9 9 10 9 6 6 5 4 4 2 3 6 6 8 9 6 7 5
10 13 16 17 17 13 13 13 13 15 15 15 12 10 7 5 4 6 7 8 9 11 11 12 13 13 12 10 9 8 8 7 4 3 3 3 4 5 7 9 9 10 6
10 11 15 17 19 14 12 13 15 16 17 18 18 17 14 10 7 7 8 10 11 12 13 13 12 11 10 9 8 8 7 7 5 4 3 4 6 8 9 9 9 9 6
8 10 12 15 15 16 14 12 11 14 14 15 15 15 14 13 13 13 12 12 10 9 9 9 10 10 9 8 8 8 7 7 6 6 5 6 7 10 13 14 10 10 10
6 9 10 11 12 12 11 10 8 10 11 11 12 13 13 12 12 11 10 10 9 9 9 10 11 10 9 7 7 8 9 8 9 7 6 8 10 12 12 13 12 13 13
5 8 11 11 11 10 9 8 8 9 8 7 8 11 12 11 9 8 7 7 6 7 6 6 5 5 6 6 7 8 9 10 9 6 6 8 8 12 14 13 11 11 12
4 6 9 11 11 10 8 9 9 8 6 5 4 5 5 5 7 6 4 5 7 6 6 5 7 6 7 7 9 9 12 13 8 6 8 10 12 9 6 8 10 11 13
1 4 9 11 11 11 10 11 8 8 7 7 6 6 4 3 3 4 3 5 6 8 9 3 7 8 7 7 9 12 11 8 7 9 11 11 9 6 9 12 14 12 9
3 2 7 12 13 16 14 8 8 9 10 9 9 8 7 6 4 3 1 3 7 5 5 8 8 8 7 10 12 11 10 9 9 9 8 7 5 5 9 11 12 13 11
4 4 3 10 12 13 16 12 8 9 12 11 7 9 9 9 8 7 6 7 6 7 7 8 8 7 9 12 11 10 10 10 7 7 8 8 8 8 9 10 12 16 15
5 6 6 8 11 14 17 17 9 8 9 11 10 6 5 5 6 7 8 8 9 9 8 8 9 9 10 11 10 9 10 11 10 7 8 10 10 9 7 11 10 14 12
7 6 7 9 9 13 15 17 12 9 8 8 9 8 4 4 6 5 4 5 7 8 8 9 9 9 8 8 8 9 11 11 10 9 7 8 8 8 7 10 9 12 12
10 9 9 10 11 13 17 17 13 10 9 9 9 9 7 6 5 5 5 6 6 7 8 8 9 9 8 8 8 8 9 13 12 9 7 7 8 8 8 7 8 11 11
12 10 10 11 11 12 16 18 13 9 10 10 10 9 10 8 8 7 7 9 11 12 10 10 9 7 7 9 11 12 12 13 11 7 6 7 8 8 8 7 8 9 11
15 13 12 12 12 12 15 17 13 9 9 11 11 11 10 10 8 8 10 11 10 9 8 7 6 7 9 11 13 13 12 11 10 7 6 6 8 8 8 7 7 8 11
17 15 13 13 12 11 15 20 9 9 9 11 13 10 9 9 7 7 7 9 9 7 6 5 7 9 11 13 13 11 10 9 8 6 5 6 8 8 8 7 6 9 11
19 17 15 15 13 11 12 17 7 5 9 9 11 8 10 10 7 8 9 9 9 7 6 5 8 9 10 11 11 10 10 9 7 6 6 7 8 8 8 6 5 7 9
18 17 19 17 14 12 12 11 12 10 10 10 11 8 9 11 9 9 9 10 9 7 7 7 6 7 8 9 9 9 9 8 7 6 6 6 7 7 7 6 5 6 8
19 18 18 17 16 14 13 13 11 11 11 9 8 8 9 10 9 10 11 10 10 9 8 8 7 7 8 8 9 9 9 8 8 7 6 6 6 7 7 5 5 6 7
22 21 21 19 18 19 17 15 14 12 13 12 12 12 10 8 8 9 10 11 12 11 10 9 9 9 9 10 10 10 9 9 9 8 7 7 7 6 6 5 5 5 6
25 24 23 22 20 18 18 18 16 16 15 15 13 15 15 14 13 11 9 10 12 14 13 12 11 11 11 11 11 11 10 9 9 8 7 7 7 6 6 6 6 6 5
25 25 25 26 24 22 20 19 19 19 18 15 12 16 16 15 16 17 14 13 10 10 11 13 13 12 12 12 11 11 11 10 9 8 8 7 7 8 7 6 6 6 5
21 23 26 26 23 23 21 20 20 19 18 17 18 19 19 21 18 17 18 17 14 11 10 12 12 12 12 12 12 12 12 11 10 9 8 7 8 8 8 8 7 6 6
Wind_Direction
355 5 14 11 9 8 6 12 17 14 8 7 11 13 35 56 67 59 75 77 77 78 79 76 79 81 81 84 91 98 105 111 122 146 165 122 75 55 32 16 359 323 302
7 19 19 14 13 20 25 24 17 10 3 2 4 21 69 64 63 73 62 57 55 58 60 56 56 50 44 67 90 82 101 108 108 110 113 97 50 354 347 341 338 334 321
3 13 19 15 9 14 35 33 30 18 10 15 27 54 73 80 73 60 46 36 33 31 35 33 52 67 78 94 109 103 83 84 85 93 73 62 50 29 10 1 352 350 337
22 21 14 10 4 19 27 31 25 15 23 32 46 58 67 74 71 67 53 48 58 71 77 83 88 87 92 109 99 77 73 75 75 63 52 45 39 17 16 10 351 348 348
26 20 20 18 18 27 33 33 31 36 46 54 58 57 61 67 74 80 63 68 72 77 79 82 81 81 83 88 89 78 68 58 52 35 21 20 352 349 340 344 346 340 321
25 22 16 25 25 35 40 37 48 55 53 54 59 61 62 67 79 83 86 83 80 80 82 81 80 77 76 73 67 56 40 25 12 355 338 335 343 331 330 331 331 336 346
31 13 24 23 27 33 44 49 60 46 48 46 49 52 54 60 71 81 85 84 80 78 78 77 73 62 60 53 40 34 28 11 343 327 308 306 318 326 317 321 317 321 316
20 23 18 15 17 22 30 38 34 28 34 48 48 56 62 65 71 77 80 80 78 74 71 65 53 39 33 17 24 22 9 5 3 345 316 325 317 318 326 326 311 311 324
23 31 24 21 11 4 15 15 9 21 29 38 52 55 61 62 62 67 69 65 61 72 70 65 39 24 6 357 350 350 357 351 342 344 343 338 330 326 324 323 323 322 330
24 32 19 14 21 17 356 354 350 356 2 4 6 17 27 36 43 48 54 53 43 12 348 351 337 327 327 327 331 338 339 335 333 331 330 330 327 321 336 353 353 335 320
329 8 1 359 5 359 2 13 349 336 326 318 311 320 324 327 343 358 25 28 6 353 25 356 353 352 345 341 339 338 346 359 354 342 334 331 333 337 345 349 347 350 345
271 323 353 343 358 348 347 331 341 351 345 299 284 284 293 293 295 305 280 319 344 350 1 356 351 348 339 337 341 348 351 342 337 345 353 353 346 330 332 336 344 351 339
258 283 311 325 330 340 347 347 327 331 343 351 311 283 280 284 284 276 263 261 301 320 317 334 336 325 332 337 338 340 347 352 345 347 356 356 345 332 330 335 342 344 343
265 281 290 302 318 323 333 344 329 327 332 352 352 322 302 310 311 292 273 271 279 290 298 306 318 315 324 333 335 329 340 348 352 343 346 354 352 341 335 333 342 347 354
272 259 285 302 312 319 325 323 325 316 321 327 348 352 335 336 340 336 321 285 286 285 289 304 307 311 315 328 336 331 333 338 340 334 331 342 347 346 335 335 344 351 353
256 265 278 302 300 308 320 329 324 309 310 312 317 332 329 310 302 313 317 312 301 295 295 297 298 306 310 322 330 329 329 329 329 328 327 334 340 342 339 337 345 352 354
263 264 272 291 301 301 319 323 324 312 309 304 304 310 323 297 299 305 307 312 301 288 289 288 293 296 304 319 325 326 325 328 334 333 328 331 338 339 340 331 339 349 355
260 260 271 284 294 303 320 323 299 299 308 311 299 296 308 316 283 291 299 308 316 310 295 282 279 289 304 314 320 323 325 330 333 335 327 327 338 338 335 329 332 345 350
257 257 266 274 289 296 306 319 299 292 288 304 322 292 295 309 295 293 304 312 309 308 300 282 279 293 305 312 317 321 325 329 333 337 328 328 333 339 334 329 325 338 353
257 256 256 265 280 291 303 318 281 312 307 300 326 305 290 299 294 291 303 313 317 303 297 285 288 300 310 313 317 322 327 330 329 328 321 320 331 338 334 328 322 333 340
261 259 254 258 268 276 282 304 291 278 290 295 306 315 304 300 288 285 291 294 310 301 291 289 288 302 314 320 327 329 327 323 318 316 318 317 327 335 333 321 320 328 334
252 252 253 255 258 265 264 274 289 297 286 283 289 294 308 305 307 297 287 288 289 307 301 289 283 292 311 321 323 323 320 316 313 302 299 304 315 328 334 329 319 324 333
249 252 253 254 256 261 260 257 265 278 293 287 279 273 279 296 293 297 292 281 278 281 296 299 286 285 300 314 321 321 317 312 308 301 286 290 294 317 322 324 322 321 325
252 251 249 249 252 254 256 257 259 274 274 276 269 286 281 272 276 286 293 289 278 276 279 289 295 284 288 300 312 320 317 312 307 302 288 279 284 287 310 302 315 312 306
258 250 250 248 248 252 256 258 258 256 258 259 279 274 283 286 268 276 276 283 288 279 273 278 282 288 279 284 296 309 313 310 305 301 293 279 277 271 289 297 288 310 296
259 269 252 251 247 247 249 254 251 252 251 256 264 266 265 278 278 278 274 271 275 281 276 276 275 283 279 276 284 297 309 310 307 304 299 291 278 274 276 280 271 284 294